N5PA-2 Weather Reports


Display with metric or nautical units.
time (UTC)temp
F
wind
direction
speed
MPH
gust
MPH
rain 1hr
in
rain 24hr
in
rain mn
in
humidity
%
barometer
mb
20260502213505 72 324 1.0 3.0 0.00 0.75 0.09 44 1015.7
20260502213005 72 309 1.0 5.0 0.00 0.76 0.09 41 1015.7
20260502212005 72 342 1.0 5.0 0.00 0.79 0.09 41 1015.7
20260502211005 72 336 1.0 4.0 0.00 0.82 0.09 43 1015.8
20260502210505 72 34 1.0 3.0 0.00 0.84 0.09 45 1015.8
20260502210005 72 58 2.0 5.0 0.00 0.86 0.09 44 1015.8
20260502205505 72 51 1.0 5.0 0.00 0.88 0.09 45 1016.0
20260502205005 73 339 1.0 4.0 0.00 0.91 0.09 45 1016.1
20260502204505 72 293 1.0 4.0 0.00 0.92 0.09 44 1016.0
20260502204004 72 296 1.0 3.0 0.00 0.93 0.09 45 1016.1
20260502203504 72 63 1.0 7.0 0.00 0.94 0.09 47 1016.2
20260502202505 73 339 1.0 3.0 0.00 0.96 0.09 45 1016.3
20260502202004 72 36 1.0 4.0 0.00 0.97 0.09 45 1016.4
20260502201505 72 21 1.0 4.0 0.00 0.98 0.09 48 1016.3
20260502200504 72 17 1.0 3.0 0.00 0.98 0.09 44 1016.4
20260502200005 72 50 2.0 3.0 0.00 0.99 0.09 44 1016.5
20260502195005 71 29 2.0 4.0 0.00 0.99 0.09 42 1016.6
20260502194505 71 355 2.0 4.0 0.00 0.99 0.09 43 1016.7
20260502193504 71 326 2.0 8.0 0.00 1.00 0.09 47 1016.7
20260502193005 71 333 2.0 8.0 0.00 1.00 0.09 45 1016.8
20260502192505 71 33 2.0 5.0 0.00 1.00 0.09 44 1016.7
20260502192005 71 47 2.0 5.0 0.00 1.00 0.09 43 1016.7
20260502191505 71 40 1.0 3.0 0.00 1.01 0.09 47 1016.7
20260502191005 71 22 1.0 3.0 0.00 1.01 0.09 45 1016.9
20260502190505 70 42 2.0 6.0 0.00 1.01 0.09 49 1016.8
20260502190005 70 53 2.0 7.0 0.00 1.02 0.09 45 1016.8
20260502185004 70 43 2.0 7.0 0.00 1.02 0.09 50 1016.8
20260502184504 70 29 2.0 7.0 0.00 1.03 0.09 44 1016.9
20260502184005 70 28 2.0 7.0 0.00 1.04 0.09 45 1017.0
20260502183505 70 37 1.0 5.0 0.00 1.04 0.09 48 1016.9
20260502183005 70 355 2.0 7.0 0.00 1.05 0.09 46 1017.1
20260502182504 70 342 2.0 7.0 0.00 1.05 0.09 49 1017.1
20260502182004 70 8 2.0 8.0 0.00 1.06 0.09 46 1017.2
20260502181504 69 21 2.0 8.0 0.00 1.07 0.09 46 1017.2
20260502181005 69 22 2.0 6.0 0.00 1.07 0.09 46 1017.2
20260502164004 65 50 2.0 8.0 0.00 1.14 0.09 56 1017.9
20260502163505 64 38 2.0 5.0 0.00 1.15 0.09 55 1017.9
20260502162505 64 30 2.0 8.0 0.00 1.16 0.09 60 1017.7
20260502162004 64 11 2.0 5.0 0.00 1.17 0.09 58 1017.7
20260502161504 64 22 2.0 4.0 0.00 1.17 0.09 62 1017.7
20260502160504 63 17 2.0 5.0 0.00 1.18 0.09 68 1017.8
20260502152004 60 343 1.0 4.0 0.00 1.24 0.09 79 1017.4
20260502151504 60 342 1.0 3.0 0.00 1.25 0.09 81 1017.4
20260502151004 60 350 1.0 3.0 0.00 1.25 0.09 83 1017.3
20260502150504 59 29 1.0 5.0 0.00 1.25 0.09 82 1017.2
20260502130505 55 317 0.0 1.0 0.00 1.31 0.09 82 1015.8
20260502123505 54 237 0.0 1.0 0.00 1.31 0.09 82 1015.6
20260502123005 54 227 0.0 1.0 0.00 1.31 0.09 82 1015.5
20260502122505 54 225 0.0 1.0 0.00 1.31 0.09 82 1015.3
20260502122005 54 0 0.0 0.0 0.00 1.31 0.09 82 1015.3
20260502121005 54 0 0.0 0.0 0.00 1.31 0.09 82 1015.2
20260502120505 54 0 0.0 0.0 0.00 1.31 0.09 82 1015.0
20260502115505 53 0 0.0 0.0 0.00 1.31 0.09 82 1014.9
20260502115004 53 0 0.0 0.0 0.00 1.31 0.09 82 1014.8
20260502114505 53 0 0.0 0.0 0.00 1.31 0.09 82 1014.6
20260502114005 53 0 0.0 0.0 0.00 1.31 0.09 82 1014.5
20260502113505 53 0 0.0 0.0 0.00 1.31 0.09 82 1014.5
20260502113004 53 52 0.0 1.0 0.00 1.31 0.09 82 1014.4
20260502112505 53 52 0.0 1.0 0.00 1.31 0.09 82 1014.3
20260502112005 53 62 0.0 1.0 0.00 1.31 0.09 82 1014.3
20260502111004 53 0 0.0 0.0 0.00 1.31 0.09 82 1014.1
20260502110505 53 0 0.0 0.0 0.00 1.31 0.09 82 1014.1
20260502105005 53 62 0.0 2.0 0.00 1.31 0.09 82 1014.1
20260502104505 53 62 0.0 2.0 0.00 1.31 0.09 82 1014.0
20260502104005 53 0 0.0 0.0 0.00 1.31 0.09 82 1014.0
20260502103504 53 0 0.0 0.0 0.00 1.31 0.09 82 1014.0
20260502103004 53 5 0.0 1.0 0.00 1.31 0.09 82 1013.9
20260502102505 53 11 0.0 1.0 0.00 1.31 0.09 82 1013.9
20260502102005 53 16 0.0 1.0 0.00 1.31 0.09 82 1013.9
20260502101505 53 0 0.0 0.0 0.00 1.31 0.09 82 1013.9
20260502101005 53 0 0.0 0.0 0.00 1.31 0.09 82 1013.8
20260502091505 53 0 0.0 0.0 0.00 1.32 0.09 82 1013.8
20260502071505 52 0 0.0 0.0 0.00 1.32 0.09 83 1013.9
20260502071005 52 0 0.0 0.0 0.01 1.32 0.09 83 1013.7
20260502070504 52 0 0.0 0.0 0.01 1.32 0.09 83 1013.9
20260502070005 52 0 0.0 0.0 0.01 1.32 0.09 83 1014.0
20260502065505 52 0 0.0 0.0 0.02 1.32 0.09 83 1013.9
20260502065005 52 38 0.0 1.0 0.02 1.32 0.09 83 1014.1
20260502064505 52 38 0.0 1.0 0.04 1.32 0.09 83 1014.1
20260502064005 52 34 0.0 2.0 0.04 1.32 0.09 83 1014.0
20260502063505 52 33 0.0 2.0 0.06 1.32 0.09 83 1013.7
20260502063005 52 49 0.0 2.0 0.06 1.33 0.09 83 1013.9
20260502062505 52 43 0.0 2.0 0.07 1.33 0.09 83 1014.0
20260502062005 52 21 0.0 1.0 0.07 1.33 0.09 83 1014.2
20260502060505 52 38 0.0 1.0 0.07 1.32 0.08 83 1014.4
20260502060005 52 63 0.0 2.0 0.08 1.32 0.08 83 1014.2
20260502055504 52 67 0.0 2.0 0.07 1.31 0.07 83 1014.1
20260502054504 52 10 0.0 1.0 0.06 1.30 0.05 83 1014.6
20260502054004 52 11 0.0 1.0 0.05 1.29 0.04 83 1014.5
20260502053505 52 0 0.0 0.0 0.04 1.28 0.03 83 1014.6
20260502053005 52 10 0.0 1.0 0.03 1.27 0.02 83 1014.5
20260502052504 52 11 0.0 1.0 0.03 1.27 0.02 83 1014.4
20260502051504 52 27 0.0 1.0 0.03 1.26 0.01 83 1014.4
20260502051004 52 46 0.0 3.0 0.03 1.26 0.01 83 1014.4
20260502050504 52 45 0.0 3.0 0.04 1.26 0.01 83 1014.3
20260502050006 52 19 0.0 2.0 0.03 1.25 0.00 83 1014.4
20260502045505 52 15 0.0 1.0 0.03 1.25 1.25 83 1014.4
20260502044005 52 0 0.0 0.0 0.04 1.24 1.24 83 1014.3
20260502043505 52 0 0.0 0.0 0.04 1.24 1.24 83 1014.1
20260502043005 52 0 0.0 0.0 0.04 1.24 1.24 83 1014.0
20260502042505 52 0 0.0 0.0 0.04 1.24 1.24 83 1014.2
20260502042004 52 337 0.0 1.0 0.03 1.23 1.23 83 1014.3
20260502041504 52 337 0.0 1.0 0.03 1.24 1.23 83 1014.5
20260502035504 52 0 0.0 0.0 0.01 1.22 1.21 83 1014.8
20260502035004 52 0 0.0 0.0 0.01 1.22 1.21 83 1014.9
20260502034504 52 0 0.0 0.0 0.00 1.21 1.20 83 1014.9
20260502034004 52 4 0.0 1.0 0.00 1.21 1.20 83 1014.7
20260502033504 52 8 0.0 1.0 0.00 1.21 1.20 83 1014.5
20260502033004 52 82 0.0 1.0 0.00 1.21 1.20 83 1014.4
20260502032504 52 82 0.0 1.0 0.00 1.21 1.20 83 1014.5
20260502032004 52 83 0.0 1.0 0.00 1.21 1.20 83 1014.4
20260502031505 51 85 0.0 2.0 0.01 1.21 1.20 83 1014.3
20260502031005 51 82 1.0 3.0 0.01 1.21 1.20 83 1014.3
20260502030505 51 80 0.0 3.0 0.01 1.21 1.20 83 1014.1
20260502025505 51 84 0.0 2.0 0.01 1.21 1.20 83 1014.1
20260502025005 51 80 0.0 2.0 0.01 1.21 1.20 83 1014.1
20260502024505 51 79 0.0 2.0 0.01 1.21 1.20 83 1014.0
20260502024005 51 57 0.0 2.0 0.01 1.21 1.20 83 1014.1
20260502023505 51 55 0.0 2.0 0.01 1.21 1.20 83 1014.0
20260502022506 51 72 0.0 2.0 0.01 1.21 1.20 83 1013.6
20260502022005 51 52 0.0 2.0 0.01 1.21 1.20 83 1013.5
20260502021505 51 352 0.0 2.0 0.00 1.20 1.19 83 1013.1
20260502021005 51 343 0.0 2.0 0.00 1.20 1.19 83 1013.1
20260502020505 51 0 0.0 0.0 0.00 1.20 1.19 83 1013.2
20260502020005 51 0 0.0 0.0 0.00 1.20 1.19 83 1013.4
20260502015505 51 237 0.0 1.0 0.00 1.20 1.19 83 1013.3
20260502015005 51 283 0.0 1.0 0.00 1.20 1.19 83 1013.2
20260502014505 51 343 0.0 2.0 0.01 1.20 1.19 83 1013.2
20260502014005 51 344 1.0 2.0 0.01 1.21 1.19 83 1013.2
20260502013505 51 347 1.0 3.0 0.01 1.21 1.19 83 1013.3
20260502013005 51 31 1.0 4.0 0.03 1.21 1.19 83 1013.2
20260502011504 51 35 1.0 3.0 0.08 1.23 1.19 83 1013.0
20260502011005 51 48 1.0 3.0 0.09 1.23 1.19 83 1012.9
20260502010505 51 43 1.0 2.0 0.10 1.23 1.19 83 1012.8
20260502010005 51 28 1.0 2.0 0.11 1.23 1.19 83 1012.6
20260502005505 51 31 1.0 2.0 0.12 1.23 1.19 83 1012.4
20260502005005 52 39 1.0 2.0 0.14 1.23 1.19 83 1012.4
20260502004505 52 29 0.0 2.0 0.15 1.22 1.18 83 1012.6
20260502004005 52 16 0.0 1.0 0.17 1.22 1.18 83 1013.0
20260502003504 52 25 0.0 2.0 0.18 1.21 1.17 83 1013.2
20260502003005 52 30 0.0 2.0 0.18 1.21 1.16 83 1013.2
20260502002505 52 20 0.0 2.0 0.18 1.19 1.14 83 1013.3
20260502002005 52 21 0.0 2.0 0.18 1.17 1.12 83 1013.3
20260502001505 52 41 0.0 1.0 0.18 1.16 1.11 83 1013.4
20260502000504 52 0 0.0 0.0 0.18 1.14 1.09 83 1013.2
20260501235505 52 0 0.0 0.0 0.18 1.13 1.06 83 1013.3
20260501234504 52 22 0.0 1.0 0.19 1.10 1.03 83 1013.2
20260501232505 52 84 0.0 1.0 0.21 1.04 0.96 83 1012.4
20260501232005 52 72 1.0 4.0 0.23 1.03 0.94 83 1012.1
20260501231505 52 64 2.0 4.0 0.23 1.05 0.93 83 1011.6
20260501231004 52 62 2.0 7.0 0.23 1.06 0.92 83 1011.1
20260501230504 52 52 2.0 7.0 0.24 1.06 0.91 83 1011.1
20260501230004 52 43 2.0 4.0 0.24 1.05 0.89 83 1010.9
20260501225505 52 57 1.0 4.0 0.24 1.05 0.88 83 1010.8
20260501225005 52 69 2.0 7.0 0.23 1.05 0.86 83 1010.8
20260501224505 52 71 3.0 7.0 0.23 1.03 0.84 83 1010.4
20260501224005 52 69 2.0 8.0 0.24 1.02 0.83 83 1010.3
20260501223004 52 75 2.0 7.0 0.21 0.97 0.78 84 1010.7
20260501222005 52 78 2.0 8.0 0.17 0.90 0.71 84 1010.8
20260501221504 52 74 2.0 8.0 0.18 0.89 0.70 84 1010.7
20260501221004 52 71 2.0 6.0 0.18 0.87 0.68 84 1010.9
20260501220504 52 68 2.0 8.0 0.18 0.85 0.66 84 1011.0
20260501220004 52 68 2.0 8.0 0.19 0.84 0.65 84 1010.6
20260501215504 52 61 1.0 4.0 0.21 0.83 0.64 84 1011.4
20260501215005 52 61 2.0 6.0 0.21 0.82 0.63 84 1011.4
20260501214504 52 69 1.0 6.0 0.20 0.80 0.61 84 1011.3
20260501214004 52 53 1.0 5.0 0.19 0.78 0.59 84 1011.3